Location: Gro� Glienicke
(52.4675°N, 13.1079°E)
Time: 19:03:59
(UTC+00:00)

Cosmos 2218 Rocket - Pass Details

Date: 06 July 2020
Orbit: 955 x 1007 km, 82.9° (Epoch: 11 August)

Event Time Altitude Azimuth Distance (km) Brightness Sun altitude
Exits shadow 23:17:43 18° 207° (SSW) 2,240 5.4 -15.0°
Maximum altitude 23:22:32 63° 284° (WNW) 1,106 4.3 -14.9°
Drops below altitude 10° 23:28:48 10° 6° (N) 2,749 7.8 -14.9°
Sets 23:31:22 0° 10° (N) 3,693 8.9 -14.9°
